Terminal Aerodrome Forecast
Issued by NWS Dodge City, KS

Home | Current Version | Previous Version | Graphics & Text | Print | Product List | Glossary Off
Versions: 1 2 3 4 5 6 7 8 9 10 11 12 13 14 15 16 17 18 19 20 21 22 23 24 25 26 27 28 29 30 31 32 33

000
FTUS43 KDDC 301300 AAA
TAFDDC
TAF AMD
KDDC 301356Z 3014/3112 08010KT 2SM RA BR OVC005
     FM302100 06012KT P6SM BKN020=

USA.gov is the U.S. government's official web portal to all federal, state and local government web resources and services.